Temperature
23 22 21 20 19 19 18 18 18 18 18 17 17 17 17 17 17 17 17 17 17 17 17 17 17 17 17 17 17 17 17 17 17 17 17 17 17 17 17 17 17 17 17
23 22 21 20 20 19 19 18 18 18 18 18 18 17 17 17 17 17 17 17 17 17 17 17 17 17 17 17 17 17 17 17 17 17 17 17 17 17 17 17 16 16 16
24 22 21 21 20 20 19 19 19 18 18 18 17 17 17 17 17 17 17 17 17 17 17 17 17 17 17 17 17 17 17 17 17 17 17 18 18 17 17 16 16 16 16
24 23 22 21 21 20 20 19 19 19 18 18 18 18 18 18 18 17 17 17 18 18 18 18 17 17 17 17 17 17 17 17 17 17 17 17 17 17 17 16 16 16 16
25 24 23 22 21 21 20 19 19 19 19 19 18 18 18 18 18 17 18 17 18 18 18 18 18 18 17 17 17 17 17 17 17 17 17 17 17 17 17 16 16 16 15
25 24 23 22 21 21 20 20 20 20 19 19 19 18 18 18 18 18 18 18 18 18 18 18 18 17 17 17 17 17 17 17 17 17 17 17 17 17 17 17 16 16 15
25 24 23 22 22 21 21 20 20 20 20 19 19 19 19 18 18 18 18 18 18 18 18 18 18 18 18 17 17 17 17 17 17 17 16 16 17 17 17 17 16 16 15
25 24 23 23 22 21 21 20 20 20 20 20 20 20 19 19 18 18 18 18 18 18 18 18 18 18 17 17 17 17 17 17 17 17 17 16 16 16 16 16 16 16 16
25 24 24 23 22 22 21 21 20 20 20 20 20 20 20 19 19 19 19 18 18 18 18 18 18 18 18 18 17 17 17 17 17 16 16 16 16 16 16 16 16 16 16
26 25 24 23 23 22 21 21 20 20 20 20 20 20 20 20 20 19 19 19 19 18 18 18 17 17 17 18 17 17 17 17 17 17 17 16 16 16 16 16 16 16 16
25 25 24 23 23 22 21 21 20 20 20 20 20 20 20 20 20 19 19 19 19 19 18 18 17 17 17 17 17 17 17 17 16 16 16 16 16 16 16 15 15 15 15
25 24 24 23 22 22 22 21 21 21 20 20 20 20 20 20 20 19 19 19 19 19 18 18 18 17 17 17 17 17 16 16 16 16 16 16 16 16 15 15 15 15 15
24 24 23 23 22 22 21 21 21 20 20 20 20 20 20 20 20 19 19 19 19 19 18 18 18 17 17 17 17 17 16 16 16 16 16 16 16 15 15 15 15 15 15
23 23 23 22 22 21 21 21 21 21 20 20 20 20 20 20 20 19 19 19 19 18 18 18 18 17 17 17 17 17 16 16 16 16 16 15 15 15 15 15 15 14 14
23 22 22 22 21 21 21 21 21 21 20 20 20 20 20 20 20 19 19 19 19 18 18 18 17 17 17 17 17 17 16 16 16 16 16 15 15 15 15 15 15 14 14
22 21 21 21 20 20 20 20 21 20 20 20 20 20 20 20 19 19 19 19 19 18 18 18 18 17 17 17 17 17 16 16 16 16 15 15 15 15 15 15 15 14 14
21 21 20 20 20 20 20 20 20 20 20 20 20 20 19 19 19 19 19 19 18 18 18 18 18 17 17 17 17 17 16 16 16 15 15 15 15 15 15 15 14 14 14
21 20 20 20 20 19 19 20 19 19 19 19 19 19 19 19 19 19 18 18 18 18 18 18 18 17 17 17 17 17 16 16 15 15 15 15 14 14 14 14 14 14 14
20 19 19 20 19 19 19 19 19 19 19 19 19 19 18 18 18 19 18 18 18 18 18 17 17 17 17 17 17 16 16 15 15 15 15 14 14 14 14 14 13 13 13
19 19 19 19 19 19 19 19 18 19 19 19 19 18 18 18 18 18 18 18 18 17 17 17 17 17 17 16 16 16 16 15 15 15 14 14 14 14 14 13 13 13 13
18 18 18 18 18 18 18 18 18 18 18 18 18 18 18 18 18 17 18 17 17 17 17 17 17 17 16 16 16 16 15 15 14 14 14 14 14 14 14 13 13 13 12
18 18 18 18 18 18 18 18 18 18 18 18 18 18 18 17 17 17 17 17 17 17 16 16 16 16 16 16 16 16 15 15 14 14 14 14 14 14 13 13 13 12 12
17 17 17 18 17 17 17 17 17 17 17 17 17 17 17 17 17 17 16 16 16 16 16 16 16 16 16 16 16 15 15 15 14 14 14 13 13 13 13 12 12 12 12
17 17 17 17 17 17 17 17 17 17 16 16 16 16 16 16 16 16 16 16 16 16 16 16 15 15 15 15 15 15 14 14 14 13 13 13 13 12 12 12 12 11 11
16 16 16 16 16 16 16 16 16 16 16 16 16 16 16 16 16 16 16 16 16 16 16 15 15 15 15 15 15 14 14 14 13 13 13 12 12 12 12 11 11 11 11
16 16 15 15 15 16 15 15 16 15 15 15 15 15 15 15 15 15 15 16 15 15 15 15 15 15 15 14 14 14 13 13 13 12 12 12 12 12 12 11 11 11 11
Wind_Speed
9 8 7 7 7 6 6 6 5 5 4 3 3 3 3 2 2 3 3 3 3 4 3 2 4 3 2 2 3 3 4 3 2 2 1 1 1 1 1 1 1 1 1
9 9 8 8 8 7 7 7 7 6 5 4 3 2 2 2 2 2 3 3 3 3 4 3 3 3 3 3 3 3 2 3 3 2 2 2 2 2 2 2 2 1 1
11 11 10 9 9 8 8 7 7 6 6 5 4 3 3 3 3 3 3 3 3 3 2 2 2 2 3 3 3 4 4 3 3 3 2 2 1 1 2 2 2 1 1
11 11 11 10 10 9 8 8 7 7 6 6 5 5 4 3 3 2 2 3 3 3 3 3 3 3 3 3 4 4 4 4 4 3 2 2 1 2 2 2 2 1 1
12 12 12 11 10 9 9 8 8 7 7 6 5 5 4 3 3 3 3 2 2 3 3 3 3 3 3 3 3 2 4 4 4 3 3 2 3 3 2 2 2 1 1
12 11 11 11 10 10 9 9 8 8 7 7 6 6 4 4 3 4 3 3 3 2 3 3 2 3 2 2 3 3 4 4 3 3 3 3 3 3 2 2 2 2 1
11 12 12 12 11 11 10 9 9 8 8 8 8 7 6 5 5 5 4 3 3 2 3 2 2 2 2 3 3 3 3 4 4 4 4 3 3 3 3 3 2 2 1
11 11 12 12 12 12 11 10 10 9 9 9 8 7 7 6 5 5 4 4 3 2 3 3 3 2 2 2 2 2 3 3 4 4 4 3 3 3 3 3 3 2 2
11 11 11 11 12 12 12 11 11 10 9 9 8 8 8 6 5 5 5 4 3 3 4 4 3 3 3 2 2 2 2 3 4 4 4 4 3 3 3 3 4 3 3
10 11 11 11 11 11 11 10 10 10 9 9 8 7 7 7 6 6 5 4 4 3 4 4 4 3 3 3 3 3 2 3 3 3 3 3 3 3 3 4 4 4 4
9 10 10 10 11 10 10 10 10 10 9 8 8 7 7 7 7 6 6 6 5 5 5 5 4 4 4 3 3 3 3 3 3 3 3 3 3 3 3 3 3 3 3
8 9 10 10 10 10 10 10 10 10 9 8 8 8 7 7 7 7 6 6 6 6 6 5 5 5 4 4 4 4 3 3 3 3 3 3 3 4 3 3 3 3 3
8 9 9 9 9 9 8 8 9 9 9 9 9 8 8 8 8 7 7 6 6 6 5 5 5 4 4 4 5 4 4 4 4 3 3 3 3 4 3 3 3 3 4
7 8 8 8 8 8 8 8 8 8 8 9 9 9 8 8 7 7 7 7 6 6 6 5 5 4 4 4 4 4 4 4 4 3 3 3 4 4 4 4 4 3 4
7 7 7 7 7 7 7 7 7 7 7 8 8 8 8 7 7 7 7 6 6 6 6 5 5 5 5 4 4 5 5 4 4 3 3 3 2 2 3 3 4 4 5
6 6 5 5 5 6 6 6 6 7 7 7 7 7 6 7 7 7 7 7 7 6 6 6 6 6 5 3 3 5 5 5 5 4 4 4 4 3 3 2 3 4 6
4 4 4 4 4 5 5 6 6 6 7 7 7 6 7 7 7 8 7 7 7 7 6 6 7 7 5 6 6 6 5 5 5 5 4 4 3 5 4 5 6 5 5
3 3 3 3 4 4 5 5 6 6 7 7 7 7 7 7 7 8 8 8 7 7 7 7 7 7 6 8 7 6 7 6 5 6 5 4 4 3 4 5 5 5 6
2 2 2 3 3 3 4 4 5 6 6 7 7 7 7 7 7 7 7 7 7 7 7 7 7 7 6 7 7 7 6 6 6 6 5 5 5 3 4 5 5 5 4
2 1 1 2 2 2 3 4 4 5 6 6 6 6 7 7 7 7 6 6 7 7 7 7 7 7 6 7 8 8 6 6 6 5 6 5 5 4 5 6 5 6 5
1 1 1 1 2 2 3 3 3 3 3 3 4 4 5 6 6 6 5 5 6 6 6 6 6 6 6 7 9 9 7 6 6 6 5 4 7 6 6 7 6 4 4
1 1 1 1 1 1 2 2 2 2 2 2 3 3 4 5 5 5 5 5 5 6 6 6 6 5 6 6 8 9 9 7 6 5 4 3 7 7 7 5 3 3 4
1 1 1 1 1 0 1 2 2 1 1 2 2 3 3 4 4 5 5 5 5 6 6 6 6 5 4 5 8 9 9 7 5 4 1 3 7 7 6 7 6 6 6
1 1 1 1 1 1 1 2 2 2 3 3 3 3 3 4 4 4 4 5 5 6 6 6 6 5 5 4 4 5 6 7 6 4 4 7 7 6 5 6 7 7 6
2 2 2 2 2 2 2 3 3 3 4 4 4 3 4 4 3 3 3 5 5 5 6 6 6 5 5 4 4 5 5 5 5 5 5 4 4 5 5 6 6 6 6
2 3 3 3 4 3 4 4 4 4 5 5 5 4 4 4 4 4 3 3 4 5 6 5 5 4 3 4 6 5 4 3 5 5 5 5 5 6 6 6 6 6 6
Wind_Direction
177 177 182 183 179 180 181 182 183 174 181 181 187 173 169 169 156 152 147 160 166 160 172 169 153 180 177 182 174 179 178 184 169 179 161 150 139 134 147 143 136 141 149
182 182 186 187 187 185 186 187 188 184 189 180 183 178 166 166 156 144 137 162 174 177 173 173 184 178 180 185 182 186 209 197 191 206 208 195 164 132 106 124 135 110 117
191 187 191 192 191 189 191 191 187 185 190 183 182 173 172 185 166 158 155 163 170 171 173 181 200 191 208 197 200 203 211 214 207 221 240 233 185 151 142 131 114 109 88
195 192 191 193 193 190 187 186 183 185 184 188 194 192 188 179 161 167 150 156 168 179 184 192 201 208 214 206 215 203 217 223 217 202 235 261 248 226 177 162 142 127 130
193 192 192 190 190 187 184 180 181 182 183 187 184 194 199 188 173 169 160 178 171 186 188 189 195 207 217 215 227 213 226 225 236 228 213 203 199 227 237 208 187 175 159
189 189 188 186 187 184 182 179 178 184 183 186 186 192 193 194 185 184 181 185 176 182 178 188 199 214 226 222 220 222 220 229 233 238 230 229 227 220 224 224 213 196 156
184 185 185 184 186 185 183 180 178 183 186 188 190 190 192 193 195 203 192 196 188 178 170 183 190 207 212 226 229 220 232 225 221 226 232 241 250 238 236 223 214 220 197
183 184 185 185 187 187 184 183 183 187 189 190 190 191 193 197 195 198 204 195 197 187 171 181 184 187 198 208 210 231 227 219 225 230 233 239 241 233 228 234 230 227 216
182 183 184 186 186 187 187 187 187 189 191 192 190 191 194 199 192 187 200 198 196 186 176 184 185 188 195 203 205 218 230 217 221 222 218 229 227 233 236 233 236 241 238
180 182 183 184 185 186 184 188 189 192 194 192 193 188 191 194 193 196 192 193 190 184 184 192 195 198 200 201 214 209 211 215 219 230 234 234 234 230 230 234 235 240 245
175 176 179 181 181 182 181 184 189 191 194 195 193 191 189 190 191 195 195 192 190 185 189 195 201 205 208 207 212 223 212 216 219 224 222 226 242 240 232 229 232 231 229
170 171 172 174 179 183 184 184 188 191 193 190 188 188 189 190 193 193 193 188 185 187 187 193 199 205 207 209 211 219 215 222 229 231 230 232 225 231 238 233 229 226 226
167 166 167 170 176 182 185 186 191 191 189 187 189 187 192 193 197 195 192 188 185 187 187 191 196 201 208 214 216 217 220 228 233 233 238 242 233 233 228 234 227 222 218
163 167 169 174 177 180 181 186 192 191 189 188 193 191 194 193 194 196 193 190 188 187 188 190 195 198 207 216 223 222 222 222 225 229 233 239 235 231 228 226 228 224 218
163 167 171 173 177 177 180 186 188 187 186 189 195 194 192 190 189 194 194 193 196 192 188 193 201 202 205 216 224 226 218 214 216 222 230 234 236 259 249 241 226 218 221
163 168 172 172 177 180 183 184 187 185 184 190 194 191 191 191 191 194 192 193 197 198 194 201 207 210 210 165 217 248 224 213 213 219 223 216 202 194 206 250 253 243 227
153 160 170 177 182 187 189 189 188 183 184 192 195 190 194 199 201 201 196 198 200 199 201 206 210 215 198 172 200 238 233 221 221 224 229 235 211 204 208 206 214 228 240
148 153 167 175 178 180 186 188 181 181 189 194 196 196 199 203 204 204 205 205 207 206 204 207 212 214 200 181 200 222 227 227 227 230 232 233 231 228 220 216 217 220 222
140 157 177 174 170 172 172 178 183 186 192 200 202 202 203 205 205 205 206 207 209 215 212 209 214 216 200 178 189 212 220 221 227 230 229 229 224 204 237 226 222 219 216
99 105 138 156 163 172 169 181 191 192 201 204 203 204 208 210 211 208 207 210 209 216 217 214 214 213 209 178 187 211 223 222 225 225 225 222 225 195 219 227 224 223 222
85 72 98 125 148 163 172 186 195 208 215 212 204 202 207 213 215 216 215 214 213 215 218 213 211 211 208 185 191 210 226 228 230 230 227 214 180 199 220 242 236 230 233
61 63 73 84 88 154 167 178 195 221 215 201 202 205 209 214 210 210 213 211 214 214 213 213 215 211 202 193 193 205 227 253 239 238 233 196 164 190 210 224 211 198 229
11 357 359 8 3 202 186 201 224 225 206 199 215 216 213 218 217 213 213 212 216 220 217 217 218 217 206 187 181 195 213 232 236 234 160 146 167 185 203 211 207 208 223
321 310 299 297 314 302 248 236 235 221 210 214 222 222 221 223 221 228 225 225 228 228 224 221 221 222 214 205 195 201 203 206 215 216 174 170 185 211 217 204 213 224 232
309 291 284 285 285 286 274 257 245 231 226 225 228 232 230 226 217 223 238 233 233 232 230 227 221 220 223 210 194 206 209 209 200 198 204 202 199 207 216 222 224 227 226
323 311 301 294 292 290 286 278 259 242 239 242 238 234 234 227 222 219 233 230 237 217 211 227 232 225 206 170 178 195 204 186 181 203 215 217 220 222 223 225 225 228 233
Height
1534 1536 1537 1538 1539 1540 1540 1541 1542 1542 1543 1545 1546 1546 1548 1548 1549 1549 1550 1550 1551 1552 1553 1554 1555 1555 1557 1557 1558 1558 1559 1560 1560 1561 1562 1562 1563 1563 1563 1563 1564 1564 1564
1532 1534 1536 1537 1538 1539 1539 1540 1541 1542 1543 1544 1545 1546 1547 1548 1548 1549 1549 1550 1551 1552 1553 1553 1555 1555 1555 1556 1557 1557 1558 1559 1559 1560 1560 1561 1563 1561 1562 1562 1562 1563 1563
1529 1532 1534 1535 1536 1537 1538 1539 1540 1541 1542 1543 1544 1545 1546 1547 1548 1549 1549 1549 1550 1551 1552 1552 1553 1554 1555 1555 1555 1556 1556 1557 1558 1558 1560 1560 1560 1561 1561 1561 1561 1561 1562
1526 1529 1531 1533 1535 1536 1537 1538 1539 1540 1541 1542 1543 1545 1546 1547 1547 1548 1549 1549 1550 1550 1551 1552 1552 1553 1553 1553 1554 1555 1555 1556 1556 1557 1557 1558 1558 1559 1560 1561 1560 1560 1560
1522 1525 1528 1531 1533 1535 1536 1537 1538 1538 1539 1541 1542 1543 1545 1546 1547 1547 1548 1549 1549 1550 1550 1551 1551 1551 1552 1552 1552 1552 1553 1554 1555 1555 1556 1556 1556 1557 1558 1558 1559 1559 1559
1519 1523 1526 1529 1531 1533 1534 1536 1536 1537 1538 1539 1540 1542 1543 1544 1545 1546 1547 1548 1549 1549 1550 1550 1550 1550 1551 1550 1550 1551 1551 1552 1552 1553 1554 1555 1555 1555 1556 1556 1556 1557 1557
1516 1520 1523 1526 1528 1531 1532 1534 1535 1536 1537 1538 1539 1540 1541 1543 1543 1545 1546 1547 1548 1549 1548 1549 1549 1549 1549 1549 1549 1549 1549 1549 1550 1550 1551 1552 1553 1553 1554 1554 1554 1555 1555
1514 1517 1520 1523 1526 1528 1530 1532 1533 1534 1536 1536 1537 1539 1540 1542 1543 1543 1545 1545 1546 1547 1547 1547 1547 1548 1548 1548 1547 1547 1547 1547 1548 1549 1549 1550 1550 1551 1551 1552 1552 1552 1553
1511 1515 1518 1521 1523 1526 1528 1530 1531 1532 1534 1535 1536 1537 1538 1540 1541 1541 1542 1543 1544 1545 1545 1546 1546 1546 1546 1546 1546 1546 1546 1546 1546 1547 1547 1547 1548 1548 1549 1549 1550 1551 1550
1509 1512 1515 1518 1521 1523 1525 1527 1529 1530 1532 1533 1534 1536 1537 1538 1539 1540 1540 1541 1542 1543 1544 1545 1545 1545 1545 1545 1545 1545 1544 1544 1544 1545 1545 1545 1546 1546 1547 1547 1547 1548 1549
1507 1510 1513 1516 1519 1521 1523 1525 1527 1528 1530 1531 1533 1534 1535 1536 1538 1538 1539 1540 1541 1541 1542 1543 1543 1544 1544 1544 1543 1544 1543 1543 1543 1543 1543 1543 1543 1544 1544 1545 1545 1545 1545
1505 1508 1511 1514 1516 1519 1521 1523 1524 1526 1528 1530 1531 1532 1533 1534 1536 1537 1537 1538 1539 1539 1540 1540 1541 1541 1542 1542 1541 1542 1542 1542 1541 1541 1541 1541 1541 1541 1542 1542 1542 1542 1542
1504 1507 1509 1512 1514 1516 1518 1520 1522 1524 1525 1527 1528 1529 1531 1532 1533 1534 1535 1536 1536 1537 1538 1538 1539 1539 1539 1539 1539 1539 1539 1540 1540 1539 1539 1539 1539 1539 1539 1540 1540 1540 1540
1504 1506 1508 1510 1512 1514 1516 1517 1520 1521 1523 1524 1526 1527 1528 1529 1531 1532 1532 1533 1534 1535 1535 1536 1536 1536 1537 1537 1537 1537 1537 1537 1537 1537 1537 1537 1537 1536 1537 1537 1537 1537 1537
1503 1504 1506 1508 1510 1511 1513 1515 1516 1518 1519 1521 1523 1524 1525 1526 1528 1529 1530 1530 1531 1532 1532 1533 1533 1533 1533 1534 1534 1534 1534 1534 1534 1534 1534 1534 1533 1533 1533 1534 1534 1534 1534
1501 1503 1505 1506 1507 1509 1510 1511 1513 1514 1516 1517 1519 1521 1522 1523 1524 1525 1526 1527 1528 1528 1528 1529 1530 1530 1530 1530 1531 1531 1531 1531 1531 1531 1531 1531 1530 1530 1530 1530 1530 1530 1530
1500 1501 1502 1503 1505 1506 1507 1508 1510 1512 1513 1515 1516 1517 1519 1520 1521 1522 1522 1523 1524 1525 1525 1526 1527 1527 1526 1527 1528 1528 1528 1528 1528 1528 1528 1529 1528 1527 1526 1526 1526 1527 1527
1499 1500 1501 1502 1503 1504 1505 1506 1507 1509 1510 1512 1513 1514 1515 1516 1517 1517 1518 1519 1520 1521 1522 1522 1523 1523 1523 1524 1524 1525 1525 1525 1525 1525 1525 1525 1524 1524 1523 1523 1523 1523 1523
1499 1499 1500 1501 1501 1502 1503 1504 1505 1506 1507 1508 1509 1511 1512 1512 1512 1513 1514 1515 1516 1517 1518 1518 1519 1520 1520 1520 1521 1521 1521 1521 1522 1522 1521 1521 1520 1520 1520 1520 1519 1519 1519
1498 1498 1498 1499 1499 1500 1500 1501 1502 1503 1504 1505 1505 1507 1508 1508 1509 1509 1510 1511 1511 1513 1514 1514 1515 1515 1516 1516 1516 1517 1518 1518 1518 1517 1517 1516 1516 1516 1516 1516 1516 1516 1516
1496 1496 1497 1497 1497 1497 1498 1499 1500 1500 1501 1502 1502 1503 1504 1505 1506 1506 1506 1506 1507 1508 1509 1510 1510 1511 1511 1511 1512 1513 1513 1513 1513 1513 1513 1512 1512 1512 1512 1512 1513 1512 1512
1495 1495 1495 1495 1495 1495 1496 1496 1496 1497 1498 1498 1499 1499 1500 1500 1501 1501 1501 1502 1503 1504 1504 1505 1506 1506 1506 1506 1507 1508 1508 1508 1508 1508 1508 1508 1507 1507 1508 1508 1508 1509 1509
1493 1493 1493 1492 1493 1493 1493 1493 1493 1494 1494 1495 1495 1496 1496 1496 1497 1497 1497 1497 1498 1499 1500 1500 1501 1501 1501 1501 1502 1503 1503 1503 1503 1503 1504 1504 1504 1504 1504 1504 1505 1505 1505
1490 1491 1491 1490 1490 1490 1490 1490 1490 1490 1491 1491 1491 1492 1492 1492 1493 1493 1493 1493 1494 1494 1495 1495 1496 1497 1497 1497 1497 1497 1498 1498 1499 1499 1499 1500 1500 1500 1501 1501 1501 1501 1502
1488 1488 1488 1488 1488 1488 1487 1487 1487 1487 1487 1487 1488 1488 1489 1489 1489 1489 1489 1489 1489 1490 1490 1490 1491 1492 1492 1492 1492 1493 1494 1494 1495 1495 1495 1496 1496 1497 1497 1497 1498 1498 1498
1485 1485 1485 1485 1485 1485 1484 1484 1483 1483 1483 1484 1484 1484 1485 1485 1485 1485 1485 1484 1485 1485 1485 1485 1486 1486 1487 1488 1488 1489 1490 1490 1491 1492 1492 1493 1493 1493 1493 1494 1494 1494 1494